Miscellaneous Local Product
Issued by NWS Hastings, NE

Home | Current Version | Previous Version | Graphics & Text | Print | Product List | Glossary On
Versions: 1 2 3 4 5 6 7 8 9 10 11 12 13 14 15 16 17 18 19 20 21 22 23 24 25 26 27 28 29 30 31 32 33 34 35 36 37 38 39 40 41 42 43 44 45 46 47 48 49 50
000
AXUS43 KGID 290202
MISGRI

GID CWA HOURLY WEATHER ROUNDUP
NATIONAL WEATHER SERVICE HASTINGS NE
800 PM CST FRI NOV 28 2014

NOTE: "FAIR" INDICATES FEW OR NO CLOUDS BELOW 12,000 FEET WITH NO
SIGNIFICANT WEATHER AND/OR OBSTRUCTIONS TO VISIBILITY.

...SOUTH CENTRAL NEBRASKA...

CITY           SKY/WX    TMP DP  RH WIND       PRES   REMARKS
GRAND ISLAND   CLOUDY    46  23  40 SW9       29.64F
HASTINGS       CLOUDY    52  20  28 SW5       29.65F
KEARNEY        MOCLDY    48  18  29 SW6       29.67F
ORD            MOCLDY    43  21  41 CALM      29.61F
YORK           CLOUDY    45  32  61 SW9       29.64F
AURORA         CLOUDY    45  28  50 SW7       29.63F
LEXINGTON      MOCLDY    48  18  30 W8        29.67S
HOLDREGE       MOCLDY    54  15  20 SW5       29.68S
HEBRON         CLOUDY    56  30  37 S14       29.67F

...NEBRASKA PANHANDLE...

CITY           SKY/WX    TMP DP  RH WIND       PRES   REMARKS
CHADRON        PTCLDY   N/A N/A N/A SW12      29.62F
ALLIANCE       MOCLDY    45  18  34 W3        29.68F
SCOTTSBLUFF    MOCLDY    41  23  48 SE8       29.71F
SIDNEY         CLOUDY    38  21  50 W10       29.77S WCI  31

...WESTERN AND NORTH CENTRAL NEBRASKA...

CITY           SKY/WX    TMP DP  RH WIND       PRES   REMARKS
VALENTINE      MOCLDY    46  26  45 SW5       29.58F
AINSWORTH      MOCLDY    40  26  57 S8        29.59F
ONEILL         CLOUDY    48  31  50 SW3       29.61F
BROKEN BOW     MOCLDY    41  18  39 W6        29.64F
IMPERIAL       CLOUDY    45  18  34 SW9       29.73S
NORTH PLATTE   MOCLDY    37  21  52 N3        29.69F
MCCOOK         MOCLDY    50  13  22 SW9       29.70S

...EASTERN NEBRASKA...

CITY           SKY/WX    TMP DP  RH WIND       PRES   REMARKS
NORFOLK        CLOUDY    40  30  67 SE5       29.60F
SO SIOUX CITY  PTCLDY    35  28  75 E7        29.63F WCI  29
TEKAMAH        MOCLDY    34  26  72 S7        29.63F WCI  28
COLUMBUS       CLOUDY    39  27  60 CALM      29.63S
ALBION         CLOUDY    43  24  45 CALM      29.61F
OMAHA EPPLEY   CLOUDY    43  32  65 S9        29.65F
OFFUTT AFB     CLOUDY    36  29  76 SE5       29.63F WCI  32
MILLARD        CLOUDY    43  32  65 SE5       29.64F
LINCOLN        MOCLDY    50  31  48 SW5       29.65F
NEBRASKA CITY  MOCLDY    45  28  51 S10       29.67F
FALLS CITY     MOCLDY    52  34  50 S9        29.69F

...NORTHERN KANSAS...

CITY           SKY/WX    TMP DP  RH WIND       PRES   REMARKS
GOODLAND       CLOUDY    47  16  29 S7        29.76F
HILL CITY      CLOUDY    49  20  31 W5        29.71F
NORTON         CLEAR     50  12  22 SW7       29.69F
PHILLIPSBURG   CLEAR     55  25  30 W5        29.69F
SMITH CENTER   CLEAR     52  27  37 CALM      29.70S
BELOIT         CLEAR     54  32  43 S14       29.68F
HAYS           PTCLDY    48  21  34 S8        29.74S
RUSSELL        PTCLDY    50  30  46 S12       29.73S
CONCORDIA      MOCLDY    54  35  48 S20       29.69F
SALINA         PTCLDY    50  35  56 S7        29.75F
TOPEKA         CLOUDY    55  35  47 S7        29.77F



USA.gov is the U.S. government's official web portal to all federal, state and local government web resources and services.